Terug naar catalogus

FENGYUN 1C DEB

ActiefSSO
NORAD 31921·DEBRIS·🇨🇳 China

Gelanceerd May 10, 1999 vanaf Taiyuan Satellite Launch Center

Loading…

Volgende Passages (komende 24 uur)

TLE

VersSource: Space-Track

Epoch: Sep 14, 2026, 03:51 UTC

1 31921U 99025CLY 26257.16067754  .00001020  00000-0  94849-3 0  9999
2 31921  99.3199 148.8853 0200904 262.1300  95.7004 13.75894416960934

Volg FENGYUN 1C DEB in realtime met AllMySat

Download on the App Store